[Date Prev][Date Next][Thread Prev][Thread Next] - [Date Index][Thread Index][Author Index]
2 Line ISS Keps 1-13
- Subject: [sarex] 2 Line ISS Keps 1-13
- From: "Dave Larsen Ph.D." <doc@xxxxxxxxxxx>
- Date: Mon, 13 Jan 2003 04:23:33 -0800
ISS
1 25544U 98067A 03013.18077505 .00031961 00000-0 40754-3 0 5753
2 25544 51.6358 78.8855 0005235 29.7281 17.9223 15.58991905236822
----
Via the sarex mailing list at AMSAT.ORG courtesy of AMSAT-NA.
To unsubscribe, send "unsubscribe sarex" to Majordomo@amsat.org
AMSAT Home